Temperature
15 15 15 15 15 15 15 15 15 15 15 15 15 15 15 15 15 15 15 15 15 15 15 15 15 15 15 15 15 15 15 15 15 15 15 15 15 15 15 15 15 15 15
15 15 15 15 15 15 15 15 15 15 15 15 15 15 15 14 14 14 14 14 15 15 15 15 15 15 15 15 15 15 15 15 15 15 15 15 15 15 15 15 15 15 15
15 15 15 15 14 14 14 14 14 14 14 14 14 14 14 14 14 14 14 14 14 14 14 14 14 14 14 14 14 14 14 14 15 14 14 14 14 14 15 15 15 15 15
15 14 14 14 14 14 14 14 14 14 14 14 14 14 14 14 14 14 14 14 14 14 14 14 14 14 14 14 14 14 14 14 14 14 14 14 14 14 14 14 14 14 14
14 14 14 14 14 14 14 14 14 14 14 14 14 14 14 14 14 13 13 14 14 13 14 14 14 14 14 14 13 13 14 14 14 14 14 14 14 14 14 14 14 14 14
14 14 14 14 14 14 14 14 14 14 14 14 13 13 13 13 13 13 13 13 13 13 13 13 13 13 13 13 13 13 13 13 13 13 13 13 13 13 14 14 14 14 14
14 14 14 14 14 14 14 14 14 13 13 13 13 13 13 13 13 13 13 13 13 13 13 13 13 13 13 13 13 13 13 13 13 13 13 13 13 13 13 13 13 13 13
14 14 14 14 14 14 14 14 14 13 13 13 13 14 14 13 13 13 13 13 13 13 13 13 12 12 12 12 12 13 13 13 13 13 13 13 13 13 13 13 13 13 13
14 14 13 13 13 13 13 13 13 13 13 13 13 13 14 14 13 13 13 12 12 12 12 12 12 12 12 12 12 12 12 12 12 12 12 12 13 12 13 13 13 13 12
13 13 13 13 13 13 13 13 13 13 13 13 13 13 13 13 14 13 13 12 12 12 12 12 12 12 12 11 12 12 12 12 12 12 12 12 12 12 12 12 12 12 12
13 13 13 13 13 13 13 13 13 13 13 13 13 13 13 13 13 13 13 12 12 12 12 12 12 12 11 11 11 12 12 12 12 12 12 12 12 12 12 12 12 12 12
13 13 13 13 13 13 13 13 13 13 13 13 13 13 13 13 13 13 13 13 12 12 12 12 12 12 11 11 12 12 12 12 12 12 12 12 12 12 12 12 12 12 12
13 13 13 13 13 13 13 13 13 13 13 13 13 12 12 12 13 13 13 13 12 12 12 12 12 11 11 11 11 12 12 12 12 12 12 12 12 12 11 11 11 12 11
13 13 13 13 13 13 13 13 12 13 12 12 12 12 12 12 12 12 12 12 12 12 12 12 11 11 11 11 11 11 11 11 11 12 12 11 11 11 11 11 11 11 11
13 13 13 13 13 13 12 12 12 12 12 12 12 12 12 12 12 12 12 12 12 12 12 11 11 11 11 11 11 11 11 11 11 11 11 11 11 11 11 11 11 11 11
13 13 13 13 13 12 12 12 12 12 12 12 12 12 12 12 12 12 12 12 12 12 12 11 11 11 11 11 11 11 11 11 11 11 11 11 11 11 11 11 11 11 11
13 13 13 13 12 12 12 12 12 12 12 12 12 12 12 12 12 12 12 11 11 11 11 11 11 11 11 11 11 10 10 10 10 11 11 11 11 11 11 11 11 11 11
13 13 12 12 12 12 12 12 12 12 12 12 12 11 11 11 11 11 11 11 11 11 11 11 11 11 10 10 10 10 10 10 10 10 11 11 11 11 10 10 10 10 10
12 12 12 12 12 12 12 12 12 12 11 11 11 11 11 11 11 11 11 11 11 11 11 10 10 10 10 10 10 10 10 10 10 10 10 10 10 10 10 10 10 10 10
12 12 12 12 12 12 11 11 11 11 11 11 11 11 11 11 11 11 11 11 11 10 10 10 10 10 10 10 10 10 9 10 9 9 10 10 10 10 10 10 9 9 9
12 12 12 12 12 11 11 11 11 11 11 11 11 11 11 11 11 11 11 11 10 10 10 10 10 10 10 10 10 9 9 9 9 9 9 9 9 9 9 9 9 9 9
11 11 11 11 11 11 11 11 11 11 11 11 10 10 10 10 11 11 11 10 10 10 10 10 10 10 10 9 9 9 9 9 9 9 9 9 9 9 9 9 9 9 9
11 11 11 11 11 11 11 11 11 10 10 10 10 10 10 10 10 10 10 10 10 10 10 10 10 10 10 9 9 9 9 9 8 8 8 8 8 8 8 8 9 9 8
11 11 11 11 10 10 10 10 10 10 10 10 10 9 9 10 10 10 10 10 10 10 9 9 9 9 9 9 9 9 8 8 8 8 8 8 8 8 8 8 8 8 8
10 10 10 10 10 10 10 10 10 9 9 9 9 9 9 9 9 9 9 9 9 9 9 9 9 9 9 9 9 8 8 8 8 8 7 7 7 7 7 7 7 8 8
10 10 10 9 9 9 9 10 9 9 9 9 9 9 9 9 9 9 9 9 9 9 9 9 9 9 8 8 8 8 8 7 7 7 7 7 7 7 7 7 7 7 7
Wind_Speed
4 4 5 5 5 5 5 5 5 6 7 7 7 7 6 7 7 6 8 11 9 9 9 9 10 10 10 10 10 10 9 9 8 8 7 7 7 6 6 5 5 5 5
4 4 4 4 5 5 5 4 5 5 5 5 6 7 6 6 7 7 7 9 11 10 10 10 9 9 9 10 10 10 10 10 9 9 8 8 7 6 6 5 5 4 4
4 4 4 4 4 4 4 4 5 5 5 5 6 6 6 6 6 7 7 7 8 11 11 10 9 9 10 9 10 10 10 9 9 8 8 8 7 6 6 5 5 5 4
4 4 3 3 4 4 3 3 3 4 4 4 4 4 5 5 6 6 7 7 7 7 9 10 9 9 9 9 9 9 9 9 8 8 8 7 7 6 5 5 5 4 4
3 3 3 3 3 3 3 3 3 3 4 3 4 4 4 4 5 5 6 7 7 6 7 8 9 9 9 9 9 9 8 8 8 7 7 7 6 6 5 5 5 5 5
2 3 2 3 3 3 3 2 3 3 3 2 3 4 4 4 4 4 5 5 5 6 6 6 5 7 9 9 9 8 8 7 7 7 6 6 6 5 6 6 6 6 6
2 2 2 2 2 2 2 2 2 3 2 2 2 3 3 3 3 3 3 3 4 4 4 5 5 4 5 7 8 8 7 7 7 7 6 6 5 5 5 5 5 5 6
1 1 1 1 1 1 1 2 1 1 2 0 0 1 2 3 2 2 2 2 3 3 3 4 4 4 4 4 7 7 8 7 6 6 6 5 4 3 3 4 4 4 5
1 1 1 1 1 1 1 1 1 1 1 1 1 1 1 0 1 2 2 1 2 2 2 3 3 3 3 3 4 6 7 7 6 6 5 5 4 3 3 3 3 4 4
2 2 2 1 2 1 1 2 1 1 1 1 1 1 1 1 1 1 2 1 1 1 1 1 2 2 3 3 4 6 6 6 6 6 5 4 4 4 4 4 4 3 3
2 2 2 2 2 2 2 2 2 2 2 2 1 1 1 1 2 1 1 1 1 1 1 1 1 1 2 2 2 4 5 5 5 5 5 4 3 3 3 3 3 3 2
2 2 2 2 2 2 2 2 2 3 2 2 2 2 2 2 1 1 2 2 1 1 1 1 0 0 1 1 2 3 3 3 4 4 4 4 3 2 2 2 2 2 1
3 3 3 3 2 2 2 2 3 3 3 3 3 3 3 3 2 2 2 1 1 1 1 2 1 1 1 0 1 2 2 1 2 3 2 2 2 2 2 2 1 1 1
3 3 4 3 3 3 3 3 3 3 3 3 4 3 3 3 3 3 2 2 2 2 2 2 2 2 1 1 1 2 1 2 1 1 1 1 1 2 2 1 1 1 1
3 4 4 4 4 4 4 3 3 3 3 3 3 3 3 3 3 3 3 3 3 3 3 2 2 2 2 1 1 2 0 2 1 1 1 0 1 1 2 1 1 1 1
3 4 4 4 4 4 4 4 3 3 3 3 3 3 3 3 3 3 4 3 4 4 3 1 2 2 2 2 1 2 0 2 1 0 1 1 1 1 1 1 1 1 1
4 4 4 4 4 4 4 4 5 4 4 4 4 4 4 4 3 3 4 4 4 4 4 2 2 2 3 3 2 2 2 2 1 1 1 1 1 1 1 1 1 1 1
4 4 4 4 4 4 5 5 5 5 5 5 5 5 5 4 4 4 4 5 4 4 4 3 3 2 3 3 2 2 2 2 2 2 2 2 2 2 2 2 2 2 2
4 4 4 5 4 4 5 5 5 5 6 6 5 5 5 5 5 4 5 5 4 4 3 3 3 2 2 3 2 2 2 2 2 2 3 4 4 3 3 3 3 3 2
4 4 5 5 4 5 5 5 5 5 6 5 5 5 6 6 6 5 5 5 4 4 4 4 3 3 3 3 3 3 2 2 2 2 2 3 4 5 4 3 3 3 3
4 4 4 4 4 4 4 5 5 5 5 5 5 6 5 4 4 4 4 5 5 4 4 4 4 3 3 3 3 3 3 2 2 2 2 2 3 3 3 4 4 3 3
4 4 4 4 4 4 2 3 5 5 5 5 5 5 4 5 5 5 4 4 5 6 5 5 4 4 4 4 3 3 3 3 3 2 3 3 2 2 2 2 1 3 3
4 4 4 4 5 4 3 4 5 5 5 5 4 4 4 4 5 5 6 6 6 6 6 6 5 5 5 4 4 4 4 4 3 1 2 3 3 3 2 1 2 2 3
4 4 4 5 5 4 4 4 5 6 5 5 5 5 5 5 4 5 5 6 6 6 6 6 6 5 4 3 4 4 4 4 3 2 2 3 3 3 2 2 3 3 3
4 4 4 5 5 5 4 5 5 5 5 6 5 5 5 5 2 4 6 6 6 5 4 3 1 1 0 0 2 3 4 4 4 3 3 3 3 3 3 3 3 5 5
4 3 4 4 5 5 4 5 6 4 5 5 4 4 4 4 2 5 6 6 6 5 5 5 4 4 5 5 6 5 5 5 4 3 3 4 3 3 3 3 2 3 4
Wind_Direction
78 77 79 74 69 67 69 64 65 68 66 63 62 61 60 60 69 78 81 75 73 74 77 79 78 77 75 76 76 76 75 76 79 82 85 85 80 81 80 73 75 73 69
79 76 77 75 69 67 68 72 76 71 66 64 62 62 59 60 67 76 79 80 71 70 72 74 75 75 74 74 74 74 75 76 75 80 83 84 81 82 81 77 78 79 72
85 82 77 77 76 76 77 76 79 76 73 73 69 63 63 61 67 71 72 71 78 76 69 69 70 70 69 70 71 69 69 69 71 75 79 77 76 77 76 76 75 77 76
85 82 79 79 78 77 78 82 82 82 77 73 71 67 69 68 66 66 72 73 68 72 76 68 67 67 65 65 68 67 67 66 67 68 69 69 70 73 77 77 75 74 78
92 88 78 80 81 83 79 81 77 80 83 76 79 76 71 73 69 65 66 65 68 70 76 80 75 67 62 60 59 60 61 63 63 63 63 63 63 70 78 78 78 73 74
93 93 98 92 88 85 78 80 88 84 85 95 97 90 81 86 79 64 61 60 58 64 69 73 79 79 68 58 53 53 53 55 56 57 59 62 64 69 76 77 77 74 73
105 106 114 104 97 91 86 90 94 106 97 101 126 120 113 93 85 81 68 62 62 56 65 72 70 72 84 76 55 49 48 52 55 53 53 57 65 72 78 81 82 79 80
127 123 153 145 134 112 113 100 92 100 102 102 284 169 148 145 110 91 90 74 74 75 61 65 74 71 63 71 66 50 44 48 53 51 52 55 62 73 80 83 86 91 91
185 192 216 194 184 195 183 183 170 193 178 154 345 323 282 132 130 130 98 81 74 82 78 68 69 71 70 69 69 59 41 43 46 47 48 51 55 63 67 79 83 93 90
213 218 217 226 219 223 216 228 226 240 243 216 178 305 339 7 268 158 146 119 98 109 87 89 80 73 74 72 68 54 43 38 39 41 42 42 50 58 59 62 69 85 90
211 212 215 223 230 234 238 240 241 245 251 253 238 212 202 208 265 276 209 166 165 163 141 106 90 66 66 66 58 58 46 40 36 33 31 31 40 57 57 64 67 69 73
206 213 219 221 228 234 236 238 238 242 252 259 252 239 239 241 243 252 254 218 220 175 177 164 166 81 84 78 57 63 54 46 35 28 23 19 25 38 45 58 68 64 56
214 214 220 225 224 229 232 234 239 243 242 247 255 257 254 254 258 257 250 247 252 222 206 194 195 190 180 143 83 84 106 77 27 14 14 12 14 17 22 25 29 36 40
228 219 220 222 222 223 225 230 243 240 245 245 251 256 250 249 249 243 246 245 253 235 218 211 194 202 198 208 70 227 115 111 44 14 6 14 10 349 346 338 339 348 357
229 220 215 216 218 221 222 221 236 236 240 245 250 252 254 248 244 247 241 241 255 258 242 218 211 205 199 202 159 228 201 103 70 2 346 343 359 348 341 339 322 335 338
215 214 216 212 215 219 220 220 233 235 231 235 246 252 257 257 248 243 243 240 246 259 260 218 219 196 192 206 202 243 239 137 166 259 305 258 251 280 293 302 289 303 316
222 221 223 222 221 223 224 221 229 226 233 232 227 233 241 248 241 237 234 231 234 239 242 238 222 200 200 215 195 224 226 229 181 167 241 233 230 247 243 254 277 274 281
226 229 229 227 229 232 232 230 231 231 234 238 238 237 241 237 237 235 231 230 230 232 236 237 219 213 221 222 217 218 213 232 242 161 213 233 232 238 239 245 255 263 270
224 225 226 227 229 233 234 234 234 235 237 241 244 244 243 239 235 228 228 229 227 224 226 228 236 229 231 221 219 221 227 236 245 208 213 225 225 232 237 244 247 252 259
224 223 224 227 230 231 232 234 235 237 238 241 246 248 248 244 240 229 226 227 221 217 214 214 224 227 224 223 222 227 230 225 244 246 236 233 219 217 219 229 232 238 246
228 230 228 230 233 236 236 236 234 238 240 242 243 245 247 249 274 249 237 227 213 213 212 213 217 222 225 224 228 234 242 245 241 253 257 246 233 234 219 213 220 230 239
233 235 234 239 241 241 227 239 243 237 240 242 247 250 245 228 229 227 242 247 234 222 219 218 225 225 233 231 230 236 239 246 253 237 260 261 248 255 258 255 190 202 227
232 238 241 242 244 243 209 222 242 245 245 246 248 250 243 237 234 223 210 213 225 237 242 240 234 238 242 233 226 232 236 250 265 274 263 262 251 256 251 243 164 199 226
237 240 243 241 245 245 211 218 230 240 248 247 247 250 245 242 236 230 221 215 218 218 223 234 238 241 248 245 236 243 249 243 254 248 249 264 259 264 256 240 182 203 225
247 246 249 248 245 241 218 220 225 239 243 245 248 251 248 243 218 222 224 221 220 216 195 203 270 241 81 176 231 230 227 233 244 236 231 257 265 266 252 241 204 195 210
250 252 249 249 248 253 222 213 224 238 242 244 246 245 243 247 219 211 225 225 223 219 207 194 193 199 208 196 208 227 233 243 252 247 224 243 256 259 255 240 239 229 218
Height
1539 1539 1539 1538 1538 1537 1537 1537 1536 1536 1536 1536 1535 1535 1535 1535 1535 1536 1536 1536 1537 1537 1537 1537 1537 1537 1537 1537 1537 1537 1537 1537 1537 1537 1537 1537 1537 1537 1538 1538 1538 1538 1538
1540 1540 1540 1539 1539 1538 1538 1538 1538 1537 1537 1537 1536 1536 1536 1536 1536 1537 1537 1537 1538 1538 1538 1538 1538 1538 1538 1538 1538 1538 1538 1538 1537 1537 1538 1538 1538 1538 1538 1538 1538 1538 1538
1541 1541 1541 1540 1540 1540 1540 1539 1539 1538 1538 1538 1537 1537 1537 1537 1537 1538 1538 1539 1539 1538 1538 1538 1538 1539 1539 1539 1538 1538 1538 1538 1538 1538 1538 1538 1538 1538 1538 1538 1538 1538 1538
1542 1542 1541 1541 1541 1541 1540 1540 1540 1539 1539 1539 1539 1538 1538 1538 1538 1539 1539 1539 1539 1539 1539 1539 1539 1539 1539 1539 1539 1538 1538 1538 1538 1538 1538 1538 1538 1538 1538 1538 1538 1538 1538
1542 1542 1542 1542 1541 1541 1541 1541 1540 1540 1540 1540 1539 1539 1539 1539 1539 1539 1540 1540 1540 1540 1540 1539 1539 1539 1539 1539 1539 1539 1539 1538 1538 1538 1538 1538 1538 1538 1538 1538 1538 1537 1537
1542 1542 1542 1542 1542 1542 1541 1541 1541 1541 1540 1540 1540 1540 1540 1540 1540 1540 1540 1540 1541 1541 1541 1540 1540 1540 1539 1539 1539 1539 1539 1538 1538 1538 1538 1537 1537 1537 1537 1537 1537 1537 1537
1542 1542 1542 1542 1542 1542 1542 1542 1541 1541 1541 1541 1542 1542 1541 1541 1541 1540 1541 1541 1541 1541 1541 1541 1541 1540 1540 1539 1539 1539 1538 1538 1538 1538 1537 1537 1537 1537 1537 1537 1537 1537 1537
1542 1542 1542 1542 1542 1542 1541 1541 1541 1541 1541 1541 1542 1542 1542 1543 1541 1541 1541 1541 1541 1541 1541 1541 1541 1540 1540 1539 1538 1538 1538 1538 1537 1537 1537 1536 1536 1536 1536 1537 1537 1537 1536
1541 1541 1542 1542 1541 1541 1541 1541 1541 1541 1541 1541 1541 1542 1542 1542 1542 1542 1541 1541 1540 1540 1540 1540 1540 1540 1540 1539 1538 1538 1537 1537 1537 1537 1536 1536 1536 1536 1536 1536 1536 1536 1536
1541 1541 1541 1541 1541 1541 1540 1540 1540 1540 1540 1540 1540 1540 1541 1541 1541 1541 1541 1541 1540 1540 1540 1540 1539 1539 1539 1538 1537 1537 1536 1536 1536 1536 1535 1535 1535 1535 1535 1535 1535 1535 1535
1539 1539 1539 1539 1539 1539 1539 1539 1539 1539 1539 1540 1540 1540 1539 1539 1540 1540 1540 1540 1540 1539 1539 1539 1539 1539 1538 1537 1537 1536 1536 1535 1535 1534 1534 1534 1534 1534 1534 1534 1534 1534 1535
1538 1538 1538 1538 1538 1538 1538 1538 1538 1538 1538 1538 1538 1539 1539 1539 1539 1539 1539 1539 1539 1539 1538 1538 1538 1538 1537 1536 1536 1535 1534 1534 1534 1533 1533 1533 1533 1533 1533 1533 1533 1533 1533
1536 1536 1536 1536 1536 1536 1536 1536 1536 1536 1536 1536 1537 1537 1537 1537 1537 1537 1538 1537 1537 1538 1537 1537 1537 1536 1536 1536 1535 1534 1533 1533 1533 1532 1532 1532 1531 1531 1531 1531 1532 1532 1532
1534 1534 1534 1534 1534 1534 1534 1534 1534 1534 1534 1534 1535 1535 1535 1535 1535 1535 1536 1536 1536 1536 1536 1536 1535 1535 1535 1534 1534 1533 1532 1532 1531 1531 1530 1530 1530 1530 1530 1530 1530 1530 1530
1532 1532 1532 1532 1532 1532 1532 1532 1532 1532 1532 1532 1532 1533 1533 1533 1533 1533 1533 1534 1535 1534 1535 1534 1534 1533 1533 1533 1532 1532 1531 1530 1530 1529 1529 1529 1528 1528 1528 1528 1528 1528 1528
1529 1530 1530 1530 1530 1530 1530 1530 1530 1530 1530 1530 1530 1530 1530 1531 1531 1531 1531 1531 1532 1533 1532 1532 1532 1531 1531 1531 1531 1530 1530 1529 1528 1528 1527 1527 1527 1527 1527 1526 1527 1526 1526
1527 1527 1527 1527 1527 1527 1527 1527 1527 1527 1528 1528 1528 1528 1528 1528 1528 1528 1528 1529 1529 1530 1530 1530 1530 1530 1529 1529 1529 1529 1528 1527 1527 1526 1525 1525 1525 1525 1525 1524 1524 1524 1524
1524 1525 1525 1525 1525 1525 1525 1525 1525 1525 1525 1525 1525 1525 1526 1526 1526 1526 1526 1526 1527 1527 1528 1527 1528 1528 1528 1527 1527 1527 1526 1526 1525 1524 1524 1523 1523 1522 1522 1522 1522 1522 1522
1521 1521 1521 1522 1522 1522 1522 1522 1522 1522 1522 1522 1522 1523 1523 1523 1523 1523 1523 1524 1524 1524 1525 1525 1525 1525 1525 1525 1525 1525 1524 1524 1523 1522 1521 1521 1521 1520 1520 1520 1520 1520 1520
1517 1518 1518 1518 1518 1518 1518 1518 1518 1518 1518 1519 1519 1519 1519 1519 1520 1520 1520 1521 1521 1521 1522 1522 1523 1523 1523 1523 1523 1523 1522 1522 1521 1521 1520 1519 1518 1518 1518 1517 1517 1517 1517
1514 1515 1515 1515 1515 1515 1515 1515 1515 1515 1515 1515 1515 1515 1515 1515 1516 1516 1517 1517 1518 1518 1519 1519 1520 1520 1521 1520 1520 1520 1520 1520 1519 1519 1518 1517 1517 1516 1515 1515 1515 1515 1515
1511 1511 1511 1511 1511 1511 1511 1511 1511 1511 1511 1511 1511 1511 1511 1511 1512 1513 1513 1514 1515 1515 1516 1517 1517 1517 1518 1518 1517 1518 1518 1518 1518 1517 1516 1516 1515 1514 1513 1513 1512 1512 1512
1507 1507 1507 1507 1507 1507 1507 1507 1508 1508 1508 1508 1508 1508 1508 1508 1508 1509 1510 1510 1511 1512 1513 1514 1514 1514 1515 1515 1515 1515 1515 1515 1515 1514 1513 1513 1513 1512 1511 1510 1510 1509 1509
1503 1503 1503 1503 1503 1503 1504 1504 1504 1504 1504 1504 1504 1504 1504 1504 1505 1506 1506 1507 1508 1508 1509 1510 1511 1511 1511 1512 1512 1512 1512 1512 1512 1511 1511 1511 1510 1510 1509 1508 1507 1507 1506
1499 1499 1499 1499 1499 1499 1499 1500 1500 1500 1500 1500 1500 1500 1501 1501 1501 1502 1503 1503 1504 1504 1505 1505 1506 1507 1507 1508 1508 1508 1509 1509 1509 1509 1508 1508 1507 1507 1506 1506 1505 1504 1503
1494 1495 1495 1495 1495 1495 1495 1495 1496 1496 1496 1496 1496 1496 1497 1497 1497 1498 1499 1500 1500 1500 1501 1502 1502 1503 1503 1504 1504 1505 1505 1506 1506 1506 1505 1504 1504 1504 1504 1503 1502 1501 1501